Regional Weather Roundup
Issued by NWS

Home | Current Version | Previous Version | Graphics & Text | Print | Product List | Glossary On
Versions: 1 2 3 4 5 6 7 8 9 10 11 12 13 14 15 16 17 18 19 20 21 22 23 24 25 26 27 28 29 30 31 32 33 34 35 36 37 38 39 40 41 42 43 44 45 46 47 48 49 50
000
ASUS43 KDTX 191310
RWRMI
MICHIGAN HOURLY REGIONAL WEATHER ROUNDUP
NATIONAL WEATHER SERVICE DETROIT/PONTIAC MI
900 AM EDT FRI SEP 19 2014

NOTE: "FAIR" INDICATES FEW OR NO CLOUDS BELOW 12,000 FEET WITH NO
SIGNIFICANT WEATHER AND/OR OBSTRUCTION TO VISIBILITY.

MIZ047>049-052>055-059>063-066>070-074>076-081>083-191400-
SOUTHEAST LOWER MICHIGAN

CITY           SKY/WX    TMP DP  RH WIND       PRES   REMARKS
ADRIAN         SUNNY     50  47  89 E6        30.26S
ALMA           SUNNY     44  43  98 CALM      30.28R
ANN ARBOR      SUNNY     47  44  90 CALM      30.26R
BAD AXE        SUNNY     40  40 100 CALM      30.29R
DETROIT CITY   SUNNY     49  42  77 CALM      30.27R
DETROIT        MOSUNNY   50  43  77 CALM      30.27S
FLINT          SUNNY     46  42  86 CALM      30.28R
GROSSE ILE     SUNNY     50  46  87 CALM      30.25S
HILLSDALE      SUNNY     52  50  93 E5        30.24S
HOWELL         SUNNY     46  45  98 CALM      30.26R

CITY           SKY/WX    TMP DP  RH WIND       PRES   REMARKS
JACKSON        SUNNY     50  46  86 E5        30.25S
LAMBERTVILLE   SUNNY     52  48  87 E3        30.25F
LANSING        SUNNY     50  44  80 SE5       30.26S
LAPEER         NOT AVBL
MASON          SUNNY     47  45  93 SE3       30.26R
MONROE         MOSUNNY   48  46  93 CALM      30.25S
MT. CLEMENS    MOSUNNY   46  40  81 N3        30.24S
PONTIAC        MOSUNNY   47  43  86 CALM      30.25S
PORT HOPE        N/A     46  43  89 CALM      30.27R
PORT HURON     MOSUNNY   43  43 100 CALM      30.27S
TRI CITIES     SUNNY     46  42  86 CALM      30.28R
YPSILANTI      SUNNY     51  44  77 CALM      30.27R
$$
MIZ043>046-050>051-056>058-064>065-071>073-077>080-191400-
SOUTHWEST LOWER MICHIGAN

CITY           SKY/WX    TMP DP  RH WIND       PRES   REMARKS
BATTLE CREEK   SUNNY     50  46  86 SE6       30.25R
BENTON HARBOR  SUNNY     53  51  93 SE8       30.20R FOG
BIG RAPIDS     SUNNY     44  44 100 SE6       30.24S
COLDWATER      SUNNY     52  49  91 SE5       30.24S FOG
HOLLAND        SUNNY     53  49  86 E8        30.22S FOG
GRAND RAPIDS   FOG       50  50 100 SE9       30.25R VSB 1/2
KALAMAZOO      SUNNY     49  47  93 CALM      30.25R FOG
MARSHALL       SUNNY     47  46  95 E6        30.24S FOG
MUSKEGON       CLOUDY    52  49  89 SE13      30.21F FOG
$$
MIZ016>042-191400-
NORTHERN LOWER MICHIGAN

CITY           SKY/WX    TMP DP  RH WIND       PRES   REMARKS
ALPENA         MOSUNNY   46  42  86 CALM      30.26S
BEAVER ISLAND  MOSUNNY   54  49  85 S8G16     30.15F
BELLAIRE       MOSUNNY   49  42  76 S7        30.21F
CADILLAC       SUNNY     47  43  85 SE7       30.21F
CHARLEVOIX     PTSUNNY   49  45  85 SE10      30.22F
FRANKFORT      SUNNY     52  45  77 E3        30.18S
GAYLORD        SUNNY     46  41  82 S12       30.21F
GRAYLING       PTSUNNY   49  45  84 SE6       30.24F
HARBOR SPRINGS CLOUDY    50  44  81 CALM      30.20F
HOUGHTON LAKE  SUNNY     46  41  82 S8        30.25S
MANISTEE       SUNNY     46  43  87 SE7       30.19F
OSCODA         SUNNY     41  39  92 CALM      30.26F
PELLSTON       CLOUDY    49  44  83 SE8       30.20F
TRAVERSE CITY  MOSUNNY   50  40  68 VRB5      30.19F
$$
MIZ007>008-015-191400-
EASTERN UPPER MICHIGAN

CITY           SKY/WX    TMP DP  RH WIND       PRES   REMARKS
KINROSS        CLOUDY    48  45  87 SE14      30.18F
MACKINAC ISLAN CLOUDY    49  44  83 S14G20    30.19F
NEWBERRY       CLOUDY    51  49  96 S13       30.13F
S. S. MARIE    CLOUDY    49  42  77 SE9       30.18F
$$
MIZ004>006-011>014-085-191400-
CENTRAL UPPER MICHIGAN

CITY           SKY/WX    TMP DP  RH WIND       PRES   REMARKS
MANISTIQUE     CLOUDY    56  53  92 S14G24    30.13S
ESCANABA       CLOUDY    57  54  88 S13G18    30.11F
MENOMINEE      CLOUDY    57  54  88 S12       30.11F
SAWYER-GWINN   FOG       48  46  93 S16G22    30.08S VSB 1/2
$$
MIZ001>003-009>011-084-191400-
WESTERN UPPER MICHIGAN

CITY           SKY/WX    TMP DP  RH WIND       PRES   REMARKS
IRON MOUNTAIN  CLOUDY    49  47  93 S9        30.08F FOG
HOUGHTON       PTSUNNY   51  47  86 S13       29.97F
COPPER HARBOR    N/A     52  48  86 SW12G18   29.96F
IRONWOOD       MOSUNNY   55  52  88 S12G18    29.93F
$$

ABBREVIATIONS USED IN REMARKS
   TC - TEMPERATURE IN CELSIUS
  WCI - WIND CHILL INDEX
   HX - HEAT INDEX
  VSB - VISIBILITY




USA.gov is the U.S. government's official web portal to all federal, state and local government web resources and services.